TimeEST,TemperatureF,Dew PointF,Humidity,Sea Level PressureIn,VisibilityMPH,Wind Direction,Wind SpeedMPH,Gust SpeedMPH,PrecipitationIn,Events,Conditions,WindDirDegrees,DateUTC
12:15 AM,30.2,26.6,86,29.46,4.0,North,16.1,24.2,N/A,,Overcast,10,2012-12-21 05:15:00
12:35 AM,30.2,26.6,86,29.46,2.0,North,12.7,20.7,N/A,,Overcast,350,2012-12-21 05:35:00
12:55 AM,30.2,26.6,86,29.46,2.0,North,10.4,19.6,N/A,,Overcast,360,2012-12-21 05:55:00
1:15 AM,30.2,26.6,86,29.48,2.0,North,9.2,-,N/A,,Overcast,360,2012-12-21 06:15:00
1:55 AM,32.0,26.6,80,29.49,4.0,NNW,15.0,25.3,N/A,,Overcast,340,2012-12-21 06:55:00
2:15 AM,32.0,26.6,80,29.50,4.0,North,16.1,27.6,N/A,,Overcast,350,2012-12-21 07:15:00
2:35 AM,30.2,26.6,86,29.51,5.0,North,12.7,31.1,N/A,,Overcast,350,2012-12-21 07:35:00
2:55 AM,30.2,26.6,86,29.52,2.0,North,10.4,25.3,N/A,,Overcast,350,2012-12-21 07:55:00
3:15 AM,30.2,26.6,86,29.52,2.0,NNW,16.1,29.9,N/A,,Overcast,340,2012-12-21 08:15:00
3:35 AM,32.0,26.6,80,29.53,2.5,North,19.6,34.5,N/A,,Overcast,350,2012-12-21 08:35:00
3:55 AM,32.0,26.6,80,29.54,2.0,North,12.7,32.2,N/A,,Overcast,350,2012-12-21 08:55:00
4:15 AM,32.0,26.6,80,29.54,2.5,North,16.1,34.5,N/A,,Overcast,350,2012-12-21 09:15:00
4:35 AM,30.2,26.6,86,29.54,2.0,North,17.3,29.9,N/A,,Overcast,350,2012-12-21 09:35:00
4:55 AM,30.2,26.6,86,29.56,3.0,NNW,17.3,31.1,N/A,,Overcast,340,2012-12-21 09:55:00
5:15 AM,30.2,26.6,86,29.56,3.0,NNW,18.4,31.1,N/A,,Overcast,340,2012-12-21 10:15:00
5:35 AM,30.2,26.6,86,29.58,2.5,NNW,23.0,34.5,N/A,,Overcast,340,2012-12-21 10:35:00
5:55 AM,30.2,24.8,80,29.59,4.0,NNW,19.6,28.8,N/A,,Overcast,340,2012-12-21 10:55:00
6:15 AM,30.2,24.8,80,29.61,5.0,NNW,17.3,33.4,N/A,,Overcast,340,2012-12-21 11:15:00
6:35 AM,30.2,24.8,80,29.62,6.0,NNW,18.4,28.8,N/A,,Overcast,340,2012-12-21 11:35:00
6:55 AM,30.2,24.8,80,29.64,6.0,NNW,16.1,32.2,N/A,,Overcast,340,2012-12-21 11:55:00
7:15 AM,30.2,24.8,80,29.66,8.0,NNW,15.0,29.9,N/A,,Overcast,340,2012-12-21 12:15:00
7:35 AM,30.2,24.8,80,29.67,5.0,North,18.4,33.4,N/A,,Overcast,350,2012-12-21 12:35:00
7:55 AM,30.2,24.8,80,29.68,4.0,NNW,23.0,32.2,N/A,,Overcast,340,2012-12-21 12:55:00
8:15 AM,30.2,24.8,80,29.70,3.0,NNW,19.6,33.4,N/A,,Overcast,340,2012-12-21 13:15:00
8:35 AM,30.2,24.8,80,29.71,2.0,NNW,20.7,33.4,N/A,,Overcast,340,2012-12-21 13:35:00
8:55 AM,30.2,24.8,80,29.73,2.5,North,16.1,28.8,N/A,,Overcast,350,2012-12-21 13:55:00
9:15 AM,30.2,24.8,80,29.74,2.0,NNW,16.1,28.8,N/A,,Overcast,340,2012-12-21 14:15:00
9:35 AM,30.2,24.8,80,29.75,1.5,NNW,17.3,27.6,N/A,,Overcast,330,2012-12-21 14:35:00
9:55 AM,30.2,24.8,80,29.76,1.5,NNW,17.3,28.8,N/A,,Overcast,330,2012-12-21 14:55:00
10:15 AM,28.4,24.8,86,29.78,1.2,NNW,17.3,27.6,N/A,,Overcast,330,2012-12-21 15:15:00
10:35 AM,28.4,24.8,86,29.79,1.8,NNW,19.6,32.2,N/A,,Overcast,340,2012-12-21 15:35:00
10:55 AM,28.4,23.0,80,29.81,1.8,NNW,20.7,38.0,N/A,,Overcast,340,2012-12-21 15:55:00
11:15 AM,28.4,23.0,80,29.82,2.0,NNW,21.9,31.1,N/A,,Overcast,340,2012-12-21 16:15:00
11:35 AM,28.4,23.0,80,29.83,2.0,NNW,17.3,27.6,N/A,,Overcast,340,2012-12-21 16:35:00
11:55 AM,28.4,23.0,80,29.83,2.5,NNW,19.6,31.1,N/A,,Overcast,330,2012-12-21 16:55:00
12:15 PM,28.4,23.0,80,29.84,2.5,NNW,18.4,28.8,N/A,,Overcast,340,2012-12-21 17:15:00
12:35 PM,28.4,21.2,74,29.85,1.8,NNW,16.1,34.5,N/A,,Overcast,340,2012-12-21 17:35:00
12:55 PM,28.4,21.2,74,29.85,2.5,NNW,18.4,38.0,N/A,,Overcast,340,2012-12-21 17:55:00
1:15 PM,28.4,23.0,80,29.86,6.0,NNW,17.3,28.8,N/A,,Overcast,340,2012-12-21 18:15:00
1:35 PM,28.4,21.2,74,29.86,7.0,NNW,24.2,35.7,N/A,,Overcast,340,2012-12-21 18:35:00
1:55 PM,28.4,21.2,74,29.87,9.0,NNW,16.1,26.5,N/A,,Overcast,340,2012-12-21 18:55:00
2:15 PM,28.4,21.2,74,29.88,9.0,NNW,18.4,27.6,N/A,,Overcast,330,2012-12-21 19:15:00
2:35 PM,28.4,21.2,74,29.89,8.0,NNW,17.3,31.1,N/A,,Overcast,330,2012-12-21 19:35:00
2:55 PM,28.4,21.2,74,29.90,10.0,NNW,15.0,24.2,N/A,,Overcast,330,2012-12-21 19:55:00
3:15 PM,28.4,21.2,74,29.92,9.0,NNW,15.0,33.4,N/A,,Overcast,330,2012-12-21 20:15:00
3:35 PM,28.4,21.2,74,29.93,7.0,NNW,16.1,28.8,N/A,,Overcast,340,2012-12-21 20:35:00
3:55 PM,26.6,21.2,80,29.93,8.0,NNW,17.3,26.5,N/A,,Overcast,330,2012-12-21 20:55:00
4:15 PM,26.6,21.2,80,29.95,9.0,NW,17.3,27.6,N/A,,Overcast,320,2012-12-21 21:15:00
4:35 PM,26.6,21.2,80,29.96,10.0,NNW,12.7,23.0,N/A,,Overcast,330,2012-12-21 21:35:00
4:55 PM,26.6,19.4,74,29.97,10.0,NNW,18.4,29.9,N/A,,Overcast,330,2012-12-21 21:55:00
5:15 PM,26.6,21.2,80,29.99,10.0,NNW,12.7,21.9,N/A,,Overcast,330,2012-12-21 22:15:00
5:35 PM,26.6,19.4,74,30.00,10.0,NNW,16.1,21.9,N/A,,Overcast,330,2012-12-21 22:35:00
5:55 PM,26.6,19.4,74,30.01,10.0,NW,15.0,21.9,N/A,,Overcast,320,2012-12-21 22:55:00
6:15 PM,26.6,19.4,74,30.02,10.0,NNW,15.0,21.9,N/A,,Overcast,330,2012-12-21 23:15:00
6:35 PM,24.8,17.6,74,30.03,10.0,NNW,15.0,25.3,N/A,,Overcast,330,2012-12-21 23:35:00
6:55 PM,24.8,17.6,74,30.03,10.0,NW,15.0,26.5,N/A,,Overcast,320,2012-12-21 23:55:00
7:15 PM,24.8,17.6,74,30.03,10.0,NNW,13.8,24.2,N/A,,Overcast,330,2012-12-22 00:15:00
7:35 PM,24.8,17.6,74,30.03,10.0,WNW,13.8,34.5,N/A,,Overcast,300,2012-12-22 00:35:00
7:55 PM,24.8,17.6,74,30.04,10.0,NW,15.0,20.7,N/A,,Overcast,320,2012-12-22 00:55:00
8:15 PM,24.8,17.6,74,30.03,10.0,NW,19.6,27.6,N/A,,Overcast,310,2012-12-22 01:15:00
8:35 PM,24.8,17.6,74,30.04,10.0,NW,13.8,20.7,N/A,,Overcast,320,2012-12-22 01:35:00
8:55 PM,24.8,17.6,74,30.04,10.0,NW,17.3,25.3,N/A,,Overcast,320,2012-12-22 01:55:00
9:15 PM,24.8,15.8,69,30.03,10.0,NW,12.7,-,N/A,,Overcast,310,2012-12-22 02:15:00
9:35 PM,24.8,15.8,69,30.03,10.0,WNW,9.2,-,N/A,,Overcast,300,2012-12-22 02:35:00
9:55 PM,24.8,15.8,69,30.04,10.0,NW,10.4,16.1,N/A,,Overcast,310,2012-12-22 02:55:00
10:15 PM,24.8,15.8,69,30.04,10.0,WNW,9.2,-,N/A,,Overcast,300,2012-12-22 03:15:00
10:35 PM,24.8,17.6,74,30.04,10.0,WNW,9.2,-,N/A,,Overcast,300,2012-12-22 03:35:00
10:55 PM,24.8,15.8,69,30.05,10.0,WNW,10.4,-,N/A,,Overcast,300,2012-12-22 03:55:00
11:15 PM,24.8,17.6,74,30.05,10.0,WNW,11.5,-,N/A,,Overcast,300,2012-12-22 04:15:00
11:35 PM,24.8,15.8,69,30.06,10.0,WNW,11.5,-,N/A,,Overcast,300,2012-12-22 04:35:00
11:55 PM,24.8,15.8,69,30.05,10.0,WNW,10.4,-,N/A,,Overcast,290,2012-12-22 04:55:00